This is the latest recevied weather packets stored in our database for station/object N2XP-3. If no packets are shown the sender has not sent any weather packets the latest 10 day(s).
| Time | Temp. | Humidity | Pressure | Rain* | Wind** | Luminosity | Snow |
|---|---|---|---|---|---|---|---|
| 1777760375 | 14.44° C | 41% | 1008 hPa | 0 mm | 1.34 m/s, 72° | - | - |
| 1777760071 | 14.44° C | 41% | 1008 hPa | 0 mm | 0.45 m/s, 149° | - | - |
| 1777759457 | 14.44° C | 41% | 1008 hPa | 0 mm | 1.34 m/s, 198° | - | - |
| 1777759135 | 15° C | 40% | 1008 hPa | 0 mm | 0.45 m/s, 77° | - | - |
| 1777757931 | 15.56° C | 41% | 1007.8 hPa | 0 mm | 2.68 m/s, 287° | - | - |
| 1777757829 | 15° C | 41% | 1007.8 hPa | 0 mm | 0.45 m/s, 291° | - | - |
| 1777757662 | 15° C | 41% | 1007.8 hPa | 0 mm | 0.45 m/s, 291° | - | - |
| 1777757442 | 15.56° C | 41% | 1007.8 hPa | 0 mm | 0 m/s | - | - |
| 1777757326 | 15.56° C | 41% | 1007.8 hPa | 0 mm | 0 m/s | - | - |
| 1777757249 | 15.56° C | 40% | 1007.7 hPa | 0 mm | 1.79 m/s, 34° | - | - |
| 1777757024 | 15.56° C | 40% | 1007.7 hPa | 0 mm | 1.79 m/s, 34° | - | - |
| 1777756838 | 15.56° C | 39% | 1007.7 hPa | 0 mm | 3.13 m/s, 93° | - | - |
| 1777756725 | 15.56° C | 39% | 1007.7 hPa | 0 mm | 3.13 m/s, 93° | - | - |
| 1777755596 | 16.11° C | 39% | 1007.6 hPa | 0 mm | 1.34 m/s, 14° | - | - |
| 1777754306 | 15.56° C | 40% | 1007.6 hPa | 0 mm | 0.89 m/s, 322° | - | - |
| 1777753099 | 16.11° C | 41% | 1007.6 hPa | 0 mm | 1.34 m/s, 203° | - | - |
| 1777748874 | 17.22° C | 40% | 1008.5 hPa | 0 mm | 1.34 m/s, 266° | - | - |
| 1777746459 | 16.67° C | 42% | 1008.8 hPa | 0 mm | 1.34 m/s, 259° | - | - |
| 1777745554 | 16.11° C | 42% | 1009.2 hPa | 0 mm | 1.79 m/s, 20° | - | - |
| 1777744644 | 16.11° C | 43% | 1009.2 hPa | 0 mm | 2.24 m/s, 166° | - | - |
| 1777741615 | 15° C | 49% | 1009.4 hPa | 0 mm | 1.34 m/s, 62° | - | - |
| 1777741012 | 14.44° C | 49% | 1009.6 hPa | 0 mm | 2.24 m/s, 136° | - | - |
| 1777739807 | 15° C | 51% | 1009.9 hPa | 0 mm | 0.89 m/s, 203° | - | - |
| 1777739508 | 15° C | 50% | 1009.9 hPa | 0 mm | 1.34 m/s, 84° | - | - |
| 1777739204 | 15° C | 50% | 1009.8 hPa | 0 mm | 0.89 m/s, 80° | - | - |
* Rain latest hour (hover to see other rain measurements)
** Current wind speed in m/s (hover to see current wind gust speed)